Probability
23 35 16 19 13 10 0 0 0 0 0 0 0 0 0 0 0 0 0 0 0 0 0 0 0 0 0 0 0 0 0 0 0 0 0 0 0 0 0 0 0 0 0 0
16 10 6 10 3 3 0 0 0 0 0 0 0 0 0 0 0 0 0 0 0 0 0 0 0 0 0 0 0 0 0 0 0 0 0 0 0 0 0 0 0 0 0 0
0 0 0 0 0 0 0 0 0 0 0 0 0 0 0 0 0 0 0 0 0 0 0 0 0 0 0 0 0 0 0 0 0 0 0 0 0 0 0 0 0 0 0 0
0 0 0 0 0 0 0 0 0 0 0 0 0 0 0 0 0 0 0 0 0 0 0 0 0 0 0 0 0 0 0 0 0 0 0 0 0 0 0 0 0 0 0 0
0 0 0 0 0 0 0 0 0 0 0 0 0 0 0 0 0 0 0 0 0 0 0 0 0 0 0 0 0 0 0 0 0 0 0 0 0 0 0 0 0 0 0 0
0 0 0 0 0 0 0 0 0 0 0 0 0 0 0 0 0 0 0 0 0 0 0 0 0 0 0 0 0 0 0 0 0 0 0 0 0 0 0 0 0 0 0 0
0 0 0 0 0 0 0 0 0 0 0 0 0 0 0 0 0 0 0 0 0 0 0 0 0 0 0 0 0 0 0 0 0 0 0 0 0 0 0 0 0 0 0 0
0 0 0 0 0 0 0 0 0 0 0 0 0 0 0 0 0 0 0 0 0 0 0 0 0 0 0 0 0 0 0 0 0 0 0 0 0 0 0 0 0 0 0 0
0 0 0 0 0 0 0 0 0 0 0 0 0 0 0 0 0 0 0 0 0 0 0 0 0 0 0 0 0 0 0 0 0 0 0 0 0 0 0 0 0 0 0 0
0 0 0 0 0 0 0 0 0 0 0 0 0 0 0 0 0 0 0 0 0 0 0 0 0 0 0 0 0 0 0 0 0 0 0 0 0 0 0 0 0 0 0 0
0 0 0 0 0 0 0 0 0 0 0 0 0 0 0 0 0 0 0 0 0 0 0 0 0 0 0 0 0 0 0 0 0 0 0 0 0 0 0 0 0 0 0 0
0 0 0 0 0 0 0 0 0 0 0 0 0 0 0 0 0 0 0 0 0 0 0 0 0 0 0 0 0 0 0 0 0 0 0 0 0 0 0 0 0 0 0 0
0 0 0 0 0 0 0 0 0 0 0 0 0 0 0 0 0 0 0 0 0 0 0 0 0 0 0 0 0 0 0 0 0 0 0 0 0 0 0 0 0 0 0 0
0 0 0 0 0 0 0 0 0 0 0 0 0 0 0 0 0 0 0 0 0 0 0 0 0 0 0 0 0 0 0 0 0 0 0 0 0 0 0 0 0 0 0 0
0 0 0 0 0 0 0 0 0 0 0 0 0 0 0 0 0 0 0 0 0 0 0 0 0 0 0 0 0 0 0 0 0 0 0 0 0 0 0 0 0 0 0 0
0 0 0 0 0 0 0 0 0 0 0 0 0 0 0 0 0 0 0 0 0 0 0 0 0 0 0 0 0 0 0 0 0 0 0 0 0 0 0 0 0 0 0 0
0 0 0 0 0 0 0 0 0 0 0 0 0 0 0 0 0 0 0 0 0 0 0 0 0 0 0 0 0 0 0 0 0 0 0 0 0 0 0 0 0 0 0 0
0 0 0 0 0 0 0 0 0 0 0 0 0 0 0 0 0 0 0 0 0 0 0 0 0 0 0 0 0 0 0 0 0 0 0 0 0 0 0 0 0 0 0 0
0 0 0 0 0 0 0 0 0 0 0 0 0 0 0 0 0 0 0 0 0 0 0 0 0 0 0 0 0 0 0 0 0 0 0 0 0 0 0 0 0 0 0 0
0 0 0 0 0 0 0 0 0 0 0 0 0 0 0 0 0 0 0 0 0 0 0 0 0 0 0 0 0 0 0 0 0 0 0 0 0 0 0 0 0 0 0 0
0 0 0 0 0 0 0 0 0 0 0 0 0 0 0 0 0 0 0 0 0 0 0 0 0 0 0 0 0 0 0 0 0 0 0 0 0 0 0 0 0 0 0 0
0 0 0 0 0 0 0 0 0 0 0 0 0 0 0 0 0 0 0 0 0 0 0 0 0 0 0 0 0 0 0 0 0 0 0 0 0 0 0 0 0 0 0 0
0 0 0 0 0 0 0 0 0 0 0 0 0 0 0 0 0 0 0 0 0 0 0 0 0 0 0 0 0 0 0 0 0 0 0 0 0 0 0 0 0 0 0 0
0 0 0 0 0 0 0 0 0 0 0 0 0 0 0 0 0 0 0 0 0 0 0 0 0 0 0 0 0 0 0 0 0 0 0 0 0 0 0 0 0 0 0 0
0 0 0 0 0 0 0 0 0 0 0 0 0 0 0 0 0 0 0 0 0 0 0 0 0 0 0 0 0 0 0 0 0 0 0 0 0 0 0 0 0 0 0 0
0 0 0 0 0 0 0 0 0 0 0 0 0 0 0 0 0 0 0 0 0 0 0 0 0 0 0 0 0 0 0 0 0 0 0 0 0 0 0 0 0 0 0 0
Height
5874 5878 5880 5882 5883 5884 5884 5885 5885 5883 5880 5880 5878 5876 5873 5871 5869 5867 5864 5861 5858 5855 5851 5848 5844 5840 5836 5832 5827 5822 5818 5813 5809 5805 5801 5798 5795 5793 5791 5789 5789 5789 5789 5790
5871 5874 5877 5879 5880 5880 5881 5882 5883 5881 5878 5878 5876 5874 5872 5870 5868 5866 5864 5861 5858 5854 5851 5847 5843 5839 5835 5831 5826 5821 5817 5812 5807 5803 5800 5796 5793 5790 5788 5786 5785 5784 5784 5784
5868 5872 5874 5876 5877 5878 5879 5879 5879 5878 5877 5876 5874 5873 5871 5870 5868 5866 5864 5861 5858 5855 5851 5847 5843 5839 5835 5830 5826 5821 5816 5811 5807 5803 5799 5795 5791 5788 5786 5784 5782 5781 5780 5780
5864 5867 5871 5873 5875 5876 5876 5875 5876 5876 5875 5873 5873 5871 5870 5868 5867 5866 5863 5861 5858 5855 5851 5847 5843 5839 5835 5830 5826 5821 5816 5811 5806 5802 5798 5794 5791 5787 5784 5782 5780 5778 5777 5776
5861 5865 5869 5871 5872 5873 5873 5874 5874 5873 5873 5872 5871 5871 5870 5868 5867 5865 5863 5860 5858 5855 5851 5848 5844 5840 5835 5831 5826 5821 5816 5811 5807 5802 5798 5794 5790 5787 5783 5780 5778 5776 5774 5772
5859 5863 5866 5867 5869 5870 5871 5872 5872 5871 5871 5871 5871 5871 5870 5868 5866 5865 5863 5860 5858 5855 5852 5848 5844 5840 5836 5831 5826 5822 5817 5812 5807 5803 5798 5794 5790 5786 5782 5779 5776 5774 5771 5770
5857 5860 5863 5865 5866 5867 5868 5870 5870 5870 5871 5872 5871 5871 5870 5868 5867 5865 5863 5861 5858 5855 5852 5848 5845 5841 5836 5832 5827 5823 5818 5813 5808 5803 5799 5794 5790 5786 5782 5778 5775 5772 5769 5767
5857 5859 5861 5862 5864 5864 5865 5867 5868 5870 5873 5872 5870 5869 5870 5868 5866 5865 5863 5861 5858 5855 5852 5849 5845 5841 5837 5833 5828 5823 5819 5814 5809 5804 5799 5794 5790 5786 5782 5778 5774 5771 5768 5765
5856 5857 5858 5860 5861 5862 5863 5864 5866 5868 5869 5870 5869 5869 5869 5867 5866 5865 5863 5861 5858 5855 5852 5849 5846 5842 5838 5833 5829 5824 5820 5815 5810 5805 5800 5795 5791 5786 5782 5778 5774 5770 5766 5763
5853 5854 5856 5858 5859 5860 5862 5863 5865 5866 5867 5869 5870 5868 5868 5867 5866 5864 5862 5860 5858 5855 5852 5849 5846 5842 5838 5834 5830 5825 5821 5816 5811 5806 5801 5796 5792 5787 5782 5778 5773 5769 5765 5761
5851 5853 5855 5856 5857 5859 5860 5862 5863 5865 5866 5867 5867 5869 5867 5866 5865 5864 5862 5860 5858 5855 5852 5849 5846 5842 5838 5834 5830 5826 5821 5817 5812 5807 5802 5797 5792 5788 5783 5778 5773 5768 5764 5759
5849 5852 5853 5855 5856 5857 5859 5861 5862 5864 5865 5865 5866 5869 5865 5865 5864 5863 5861 5859 5857 5855 5852 5849 5845 5842 5838 5834 5830 5826 5822 5817 5813 5808 5803 5798 5793 5788 5783 5778 5773 5768 5763 5757
5848 5851 5853 5854 5857 5857 5858 5859 5861 5862 5863 5864 5864 5867 5864 5864 5863 5862 5861 5859 5857 5854 5851 5848 5845 5841 5838 5834 5830 5826 5822 5817 5813 5808 5803 5799 5794 5789 5783 5778 5773 5767 5762 5757
5846 5849 5851 5853 5852 5854 5856 5858 5860 5861 5862 5863 5863 5864 5863 5863 5862 5861 5860 5858 5856 5853 5850 5847 5844 5841 5837 5833 5829 5825 5821 5817 5813 5808 5804 5799 5794 5789 5783 5778 5773 5767 5761 5756
5844 5847 5848 5850 5851 5853 5855 5857 5858 5860 5861 5862 5862 5862 5862 5862 5861 5860 5858 5856 5854 5852 5849 5846 5843 5839 5836 5832 5828 5824 5820 5816 5812 5807 5803 5798 5793 5788 5783 5778 5773 5767 5761 5755
5843 5846 5847 5849 5850 5852 5854 5856 5857 5858 5859 5860 5860 5861 5860 5860 5859 5858 5856 5854 5852 5850 5847 5844 5841 5838 5834 5831 5827 5823 5819 5815 5811 5806 5802 5797 5793 5788 5783 5778 5772 5767 5761 5755
5842 5844 5846 5847 5849 5851 5853 5854 5856 5857 5857 5858 5859 5860 5858 5858 5857 5856 5854 5852 5850 5848 5845 5842 5839 5836 5832 5829 5825 5821 5817 5813 5809 5805 5800 5796 5791 5787 5782 5777 5772 5766 5761 5755
5841 5842 5844 5846 5848 5849 5853 5852 5854 5854 5855 5856 5856 5856 5856 5855 5854 5853 5851 5849 5847 5845 5842 5840 5837 5833 5830 5826 5823 5819 5815 5811 5807 5803 5799 5794 5790 5785 5781 5776 5771 5766 5760 5755
5839 5841 5843 5844 5845 5847 5849 5850 5851 5852 5853 5853 5853 5853 5853 5852 5851 5850 5848 5846 5844 5842 5839 5837 5834 5831 5827 5824 5820 5816 5813 5809 5805 5801 5796 5792 5788 5784 5779 5774 5770 5765 5760 5755
5837 5839 5841 5842 5843 5844 5847 5847 5847 5849 5850 5850 5850 5850 5849 5848 5848 5848 5845 5843 5841 5838 5836 5833 5830 5827 5824 5821 5817 5813 5810 5806 5802 5798 5794 5790 5785 5781 5777 5772 5768 5763 5759 5754
5835 5836 5838 5839 5840 5841 5843 5844 5844 5846 5847 5847 5846 5845 5845 5844 5844 5843 5840 5839 5837 5835 5832 5829 5827 5824 5820 5817 5813 5810 5806 5802 5798 5794 5790 5786 5782 5778 5774 5770 5765 5761 5757 5752
5831 5833 5834 5835 5836 5839 5839 5839 5840 5841 5841 5841 5841 5841 5840 5840 5839 5837 5836 5834 5833 5830 5828 5825 5823 5819 5816 5813 5809 5806 5802 5798 5794 5791 5787 5783 5779 5775 5771 5767 5763 5758 5754 5750
5827 5829 5830 5831 5833 5834 5834 5835 5835 5835 5836 5836 5836 5836 5835 5834 5834 5833 5831 5830 5828 5826 5823 5821 5818 5815 5811 5808 5805 5801 5797 5793 5790 5786 5782 5779 5775 5771 5767 5763 5759 5755 5751 5747
5822 5823 5824 5825 5826 5828 5828 5829 5829 5830 5830 5830 5830 5830 5829 5829 5828 5827 5826 5824 5823 5821 5818 5815 5812 5809 5806 5802 5799 5795 5791 5788 5784 5781 5777 5774 5770 5767 5763 5759 5755 5752 5748 5744
5816 5818 5819 5819 5820 5821 5822 5823 5823 5824 5824 5824 5824 5824 5823 5823 5822 5821 5820 5818 5817 5815 5812 5809 5806 5803 5800 5796 5793 5789 5785 5782 5778 5775 5772 5768 5765 5761 5758 5754 5751 5747 5743 5739
5810 5811 5812 5813 5814 5814 5816 5816 5816 5817 5817 5817 5817 5817 5816 5816 5815 5814 5813 5812 5810 5808 5806 5803 5800 5796 5793 5789 5786 5782 5778 5775 5772 5769 5765 5762 5759 5756 5752 5749 5746 5742 5738 5735
Wind_Speed
21 20 17 16 16 16 14 15 15 20 21 19 17 15 14 14 13 14 15 16 17 18 19 19 20 21 22 22 22 23 23 23 22 21 19 19 18 17 16 16 17 19 20 21
21 19 18 18 17 17 14 14 16 18 18 15 13 12 11 11 12 13 14 16 17 17 18 19 20 20 21 22 22 23 23 23 22 21 20 19 18 17 16 15 15 16 18 19
19 18 18 18 17 17 15 17 16 16 15 12 10 9 8 8 10 12 13 14 15 17 18 19 19 20 22 22 23 23 23 23 22 21 20 19 18 17 16 15 14 15 16 17
21 20 19 18 17 16 16 15 13 12 11 8 7 8 8 9 10 11 12 13 14 16 17 18 19 20 21 22 23 24 24 23 22 22 20 19 19 18 17 15 14 14 14 15
21 21 19 18 18 15 15 12 10 9 7 5 5 6 8 9 9 10 11 12 14 15 16 18 19 20 21 22 23 24 24 23 23 22 21 21 20 19 18 17 15 15 14 14
21 19 18 18 15 13 12 10 7 5 4 3 4 6 8 8 8 10 11 12 13 14 16 17 19 20 21 22 23 23 23 23 23 23 22 21 21 20 19 18 17 16 15 14
18 17 16 15 14 12 11 9 6 1 4 5 6 6 6 6 7 9 10 11 12 14 15 17 18 19 21 22 22 23 23 23 23 24 23 22 22 21 20 19 18 17 15 15
10 13 13 14 13 11 10 10 9 7 4 8 6 5 4 5 6 7 9 10 12 13 15 16 17 19 20 21 22 23 23 24 24 24 24 23 23 22 21 20 20 18 17 16
8 14 12 12 12 11 11 11 10 9 8 6 5 3 2 4 5 6 8 10 11 13 14 16 17 19 20 21 22 23 23 24 25 25 25 24 24 23 23 22 21 20 19 18
13 15 12 11 11 11 11 10 10 10 8 5 5 5 3 3 4 6 8 10 11 13 14 15 17 18 19 20 21 22 23 24 25 25 25 25 25 25 24 24 23 22 21 20
13 9 9 10 11 11 11 11 10 9 7 7 7 4 2 3 4 6 8 10 11 13 14 15 16 17 19 20 21 22 23 24 25 25 26 26 26 26 26 25 25 24 23 22
18 13 8 9 9 10 11 11 10 10 9 7 5 2 2 2 4 6 8 10 11 13 14 15 16 18 18 19 20 21 22 23 24 25 25 26 26 26 26 26 27 26 26 24
17 15 10 7 9 11 11 11 10 9 8 7 6 3 2 2 4 6 8 9 11 13 14 16 17 18 19 19 20 20 21 22 23 24 25 25 26 26 26 27 27 27 27 26
14 15 15 13 13 13 12 12 11 10 9 8 6 4 3 4 5 7 8 10 12 13 14 16 17 18 19 19 20 20 21 21 22 23 24 25 25 26 26 27 27 28 28 26
14 14 15 13 12 12 12 12 11 10 9 8 6 4 4 5 6 7 9 11 12 14 15 16 17 18 19 19 20 21 21 22 22 23 24 24 25 26 26 26 27 27 28 27
13 13 13 12 12 12 12 11 10 9 9 8 7 6 6 6 7 9 10 12 13 14 16 17 18 19 20 20 20 21 22 22 23 23 24 24 25 25 26 26 27 27 27 27
13 13 13 13 12 12 12 11 10 9 9 9 8 7 7 8 9 10 11 13 14 15 17 18 19 19 20 21 21 22 22 23 23 23 24 24 25 25 26 26 27 27 27 27
13 14 13 13 13 13 11 10 10 10 10 10 9 9 10 11 11 12 13 14 15 16 18 18 19 20 21 21 22 22 23 23 24 24 24 24 25 25 25 26 26 27 27 27
14 14 14 14 13 12 11 11 12 12 12 11 11 12 12 13 13 13 14 15 16 17 18 19 20 21 22 22 23 23 24 24 25 25 25 25 25 26 26 26 26 26 27 27
15 15 15 15 14 14 13 12 14 13 13 13 14 14 14 15 15 14 15 16 17 18 19 20 21 22 23 23 24 25 25 25 26 26 26 26 26 26 26 26 26 26 26 26
16 17 17 16 17 17 14 13 15 16 15 14 16 16 16 17 17 17 17 17 18 19 21 22 23 24 24 25 26 26 26 26 27 27 27 27 27 27 26 26 26 26 26 26
18 18 18 19 20 19 16 17 17 18 17 17 18 18 18 18 18 18 19 19 20 21 22 23 24 25 26 26 27 27 27 27 28 28 27 27 27 27 27 26 26 26 26 26
20 19 20 21 21 20 19 20 20 20 20 20 20 20 20 20 20 20 20 20 21 22 23 25 26 27 27 27 28 29 29 29 29 28 28 27 27 27 27 27 27 26 26 25
22 22 22 23 22 22 22 22 22 23 22 22 22 22 22 22 22 22 22 22 23 24 25 27 28 29 30 30 30 30 30 30 30 29 28 28 28 27 28 28 27 27 27 26
25 25 24 25 25 25 24 24 24 24 24 24 24 24 24 24 23 23 23 24 24 25 27 29 30 31 32 32 32 31 31 31 30 29 29 29 29 28 28 28 28 28 28 27
26 27 27 26 27 27 26 25 26 26 26 26 26 25 25 25 25 25 25 26 27 28 29 31 32 33 33 33 32 32 32 31 30 29 29 29 29 29 29 29 28 29 29 29
Wind_Direction
233 239 244 250 257 261 262 276 292 292 300 307 310 314 320 330 335 339 343 346 348 350 352 353 352 352 352 352 351 351 349 346 344 342 337 331 326 320 310 297 287 280 276 272
232 236 240 245 250 257 263 275 277 282 296 304 306 312 321 332 339 344 347 349 351 353 355 357 357 357 356 356 355 354 353 352 350 348 346 341 337 331 324 313 300 289 282 276
229 232 237 248 254 264 273 272 275 285 295 299 302 313 328 336 341 344 348 351 355 357 359 360 360 360 360 360 359 357 356 356 355 354 352 350 347 343 336 327 315 301 290 283
221 228 233 243 252 256 262 271 282 286 288 294 315 325 336 343 346 348 351 355 358 1 2 3 2 2 2 3 2 2 1 1 360 359 358 355 352 349 344 337 329 316 303 292
221 229 234 239 247 255 263 273 278 281 283 287 319 329 325 345 349 356 357 359 2 4 5 5 5 5 5 5 4 4 5 5 4 2 1 359 356 353 349 342 336 329 317 305
219 230 235 240 248 254 259 260 258 263 277 315 319 325 317 353 357 358 359 2 4 6 7 7 8 8 8 8 8 8 8 7 7 5 3 2 360 358 355 350 344 336 327 316
221 234 239 242 245 247 246 238 218 264 348 317 307 307 319 351 351 355 359 3 6 7 9 10 10 10 10 10 10 10 10 9 8 7 6 5 4 3 1 358 354 346 337 324
238 249 237 239 244 244 235 225 208 178 206 266 277 292 341 344 349 355 360 3 6 7 8 9 9 9 10 11 12 12 11 11 10 9 8 8 7 6 4 1 357 352 345 335
202 249 243 235 239 239 228 218 215 203 193 220 274 292 337 336 348 354 360 3 4 5 6 6 7 9 10 11 12 12 12 12 11 11 10 10 10 9 6 2 359 355 349 343
194 233 237 237 236 230 221 213 201 196 189 187 266 282 326 344 353 359 1 1 2 3 5 5 6 7 8 9 10 11 11 11 12 12 12 12 12 11 9 7 3 358 352 347
208 231 234 234 234 221 207 200 201 206 202 190 217 246 310 337 348 352 355 357 360 1 2 2 2 2 3 4 6 7 8 9 10 10 11 11 11 10 9 7 6 3 358 352
211 209 234 232 220 213 207 204 204 205 200 203 218 208 260 324 338 344 349 354 357 359 359 358 358 358 358 360 1 3 4 6 7 8 8 8 8 8 8 7 6 4 2 359
210 209 200 227 218 209 206 206 207 206 204 205 220 203 247 308 329 339 346 350 352 353 353 354 354 354 355 356 357 358 360 2 3 5 6 6 5 5 5 5 4 4 2 1
209 207 196 210 217 201 202 203 202 203 207 209 222 235 260 299 318 330 337 341 343 345 347 348 349 350 351 352 353 354 354 355 357 358 359 1 2 2 2 2 3 2 2 1
206 208 207 211 207 200 199 200 202 207 212 222 228 247 274 296 312 322 329 332 335 338 340 342 343 345 346 348 349 350 351 351 352 353 354 356 357 358 359 360 0 1 1 1
206 209 209 206 203 202 202 203 207 212 219 228 240 256 276 294 307 315 321 325 330 333 335 337 338 340 341 342 344 345 347 348 348 350 351 352 353 354 356 357 358 359 360 0
207 208 208 204 205 205 206 208 212 218 226 236 247 262 277 291 300 309 315 321 325 329 331 333 334 336 337 339 340 341 342 343 345 346 347 348 350 351 352 354 355 356 357 358
209 209 209 210 210 213 209 213 222 228 234 243 254 266 277 287 295 304 310 316 320 324 327 329 331 332 334 335 336 337 338 338 339 340 342 343 344 346 347 349 351 353 354 355
215 216 216 217 219 221 219 224 232 236 242 251 260 269 278 285 293 301 306 311 316 320 323 326 327 329 330 331 331 332 333 334 335 336 337 338 339 341 343 344 346 349 350 352
222 223 224 226 231 235 230 230 240 246 250 257 264 271 277 284 290 296 300 307 313 317 320 322 323 324 325 326 327 328 329 329 330 331 333 335 336 338 339 340 341 343 346 348
228 230 232 235 239 243 240 240 247 253 258 261 266 272 277 283 289 295 300 305 310 314 316 318 319 320 321 322 323 324 325 326 327 328 329 330 332 333 334 336 337 339 341 343
235 237 239 242 244 248 249 250 255 260 264 266 269 273 277 281 286 291 297 301 306 309 311 314 315 317 318 318 319 320 321 322 323 324 325 326 328 329 330 332 333 335 336 338
243 243 245 247 250 255 255 256 259 262 265 268 270 273 276 280 284 288 293 297 302 305 308 310 313 314 315 316 317 317 318 318 319 320 321 322 324 325 327 328 329 330 331 333
247 247 250 253 255 257 258 259 261 264 267 268 270 273 276 279 283 286 290 295 298 302 305 307 310 312 313 314 314 315 316 316 316 317 318 319 320 322 323 324 326 327 327 328
250 252 254 256 258 259 260 262 263 265 267 269 271 273 275 278 281 284 288 292 296 300 303 306 308 310 311 312 312 313 314 314 314 314 315 315 316 318 319 321 322 323 323 323
253 255 256 257 259 261 262 264 265 266 267 269 271 273 275 278 280 283 287 291 295 298 302 304 306 308 310 310 311 311 312 312 312 312 312 313 314 314 315 317 318 319 320 320